"Pseudo-MPEC" for P115Jev

Created 2020 Sep 25 1:07:17 UT using Find_Orb

Click here for an explanation of pseudo-MPECs

 
 Astrometry: 
     P115Jev  C2020 09 13kADi83jAstrometryX?*8xBC8JjqHt]91]redacted;_S]D$Jgp]F51
     P115Jev  C2020 09 132O#AU^?mb/d1]GJn!at:g(QmLUqnclickLUUhere2BPgZo[B$E-aF51
     P115Jev  C2020 09 13GW0r^qfor9fH`9XXa^3gmycCfC9G?qGM3explanationH^C$W[upF51

Station data:
(F51) Pan-STARRS 1, Haleakala  (N20.707235 W156.255910)  US/Hawaii.
   Observers N. Primak, A. Schultz, S. Watters, J. Thiel, T. Goggia. Measurer
   PS1 Science Consortium. 1.8-m Ritchey-Chrétien + CCD.

Orbital elements:  P115Jev
   Perihelion 2021 Feb 20.823906 +/- 110 TT = 19:46:25 (JD 2459266.323906)
Epoch 2020 Sep 13.0 TT = JDT 2459105.5   Earth MOID: 0.0021   AutoNEOCP
M 182.75631152 +/- 120              (J2000 ecliptic)
n   1.10209789 +/- 0.734            Peri.  144.93248 +/- 80
a   0.92823071 +/- 0.412            Node    21.03747 +/- 70
e   0.1087107 +/- 0.252             Incl.    0.75435 +/- 49
P   0.89/326.64d           H 26.6   G  0.15   U 12.5  SR
q 0.82732207 +/- 0.702    Q 1.02913935 +/- 20.3
From 3 observations 2020 Sept. 13 (43.1 min); mean residual 0".05
Residuals in arcseconds: 
200913 F51  .03+  .00     200913 F51  .09-  .01+    200913 F51  .06+  .00     

Ephemerides (geocentric):
Date (UTC) HH   RA              Dec         delta   r     elong  mag " sig PA
---- -- -- --  -------------   -----------  ------ ------ -----  --- ---- ---
2020 09 25 01  19 41 48.770   -26 12 24.74  .06114 1.0259 110.5 22.9 6402  76
2020 09 25 02  19 41 51.441   -26 11 35.09  .06119 1.0259 110.5 22.9 6437  76
2020 09 25 03  19 41 54.114   -26 10 45.51  .06124 1.0259 110.5 22.9 6472  77
2020 09 25 04  19 41 56.790   -26 09 55.99  .06130 1.0259 110.5 22.9 6506  77
2020 09 25 05  19 41 59.468   -26 09 06.53  .06135 1.0259 110.4 22.9 6541  77
2020 09 25 06  19 42 02.149   -26 08 17.13  .06140 1.0258 110.4 22.9 6577  77
2020 09 25 07  19 42 04.833   -26 07 27.79  .06145 1.0258 110.4 22.9 6612  77
2020 09 25 08  19 42 07.519   -26 06 38.51  .06151 1.0258 110.3 22.9 6648  77
2020 09 25 09  19 42 10.208   -26 05 49.29  .06156 1.0258 110.3 22.9 6683  77
2020 09 25 10  19 42 12.899   -26 05 00.13  .06161 1.0258 110.3 22.9 6719  77
2020 09 25 11  19 42 15.593   -26 04 11.03  .06166 1.0257 110.3 22.9 6756  78
2020 09 25 12  19 42 18.289   -26 03 21.99  .06172 1.0257 110.2 22.9 6792  78
2020 09 25 13  19 42 20.988   -26 02 33.01  .06177 1.0257 110.2 22.9 6829  78
2020 09 25 14  19 42 23.689   -26 01 44.08  .06182 1.0257 110.2 22.9 6865  78
2020 09 25 15  19 42 26.393   -26 00 55.22  .06187 1.0257 110.1 22.9 6902  78
2020 09 25 16  19 42 29.099   -26 00 06.41  .06192 1.0256 110.1 22.9 6940  78
2020 09 25 17  19 42 31.808   -25 59 17.66  .06198 1.0256 110.1 22.9 6977  78
2020 09 25 18  19 42 34.519   -25 58 28.97  .06203 1.0256 110.1 22.9 7015  78
2020 09 25 19  19 42 37.232   -25 57 40.34  .06208 1.0256 110.0 22.9 7052  79
2020 09 25 20  19 42 39.948   -25 56 51.77  .06213 1.0256 110.0 22.9 7091  79
2020 09 25 21  19 42 42.666   -25 56 03.25  .06219 1.0256 110.0 22.9 7129  79
2020 09 25 22  19 42 45.387   -25 55 14.79  .06224 1.0255 110.0 22.9 7167  79
2020 09 25 23  19 42 48.110   -25 54 26.39  .06229 1.0255 109.9 22.9 7206  79
2020 09 26 00  19 42 50.835   -25 53 38.05  .06234 1.0255 109.9 22.9 7245  79
2020 09 26 01  19 42 53.563   -25 52 49.76  .06239 1.0255 109.9 23.0 7284  79
2020 09 26 02  19 42 56.293   -25 52 01.53  .06245 1.0255 109.8 23.0 7324  80
2020 09 26 03  19 42 59.025   -25 51 13.36  .06250 1.0254 109.8 23.0 7363  80
2020 09 26 04  19 43 01.760   -25 50 25.24  .06255 1.0254 109.8 23.0 7403  80
2020 09 26 05  19 43 04.497   -25 49 37.18  .06260 1.0254 109.8 23.0 7444  80
2020 09 26 06  19 43 07.236   -25 48 49.17  .06265 1.0254 109.7 23.0 7484  80
2020 09 26 07  19 43 09.978   -25 48 01.23  .06271 1.0254 109.7 23.0 7525  80
2020 09 26 08  19 43 12.722   -25 47 13.33  .06276 1.0253 109.7 23.0 7566  80
2020 09 26 09  19 43 15.468   -25 46 25.50  .06281 1.0253 109.6 23.0 7607  80
2020 09 26 10  19 43 18.216   -25 45 37.72  .06286 1.0253 109.6 23.0 7648  81
2020 09 26 11  19 43 20.967   -25 44 49.99  .06291 1.0253 109.6 23.0 7690  81
2020 09 26 12  19 43 23.719   -25 44 02.32  .06297 1.0253 109.6 23.0 7732  81
2020 09 26 13  19 43 26.474   -25 43 14.71  .06302 1.0252 109.5 23.0 7774  81
2020 09 26 14  19 43 29.231   -25 42 27.15  .06307 1.0252 109.5 23.0 7817  81
2020 09 26 15  19 43 31.991   -25 41 39.64  .06312 1.0252 109.5 23.0 7860  81
2020 09 26 16  19 43 34.752   -25 40 52.19  .06317 1.0252 109.4 23.0 7903  81
2020 09 26 17  19 43 37.516   -25 40 04.80  .06323 1.0252 109.4 23.0 7946  82
2020 09 26 18  19 43 40.281   -25 39 17.46  .06328 1.0251 109.4 23.0 7990  82
2020 09 26 19  19 43 43.049   -25 38 30.17  .06333 1.0251 109.4 23.0 8034  82
2020 09 26 20  19 43 45.819   -25 37 42.93  .06338 1.0251 109.3 23.0 8079  82
2020 09 26 21  19 43 48.591   -25 36 55.76  .06343 1.0251 109.3 23.0 8123  82
2020 09 26 22  19 43 51.366   -25 36 08.63  .06348 1.0251 109.3 23.0 8168  82
2020 09 26 23  19 43 54.142   -25 35 21.56  .06354 1.0250 109.3 23.0 8213  82
2020 09 27 00  19 43 56.920   -25 34 34.54  .06359 1.0250 109.2 23.0 8259  83